User: anonymous   Login
Location: Unspecified
(0.0000°N, 0.0000°E)
Time: 05:49:40
(UTC+00:00)
Language:

NAVSTAR 64 (USA 206) - Orbit

View from above orbital plane
View from above orbital plane
View from above satellite
View from above satellite

Ground track
Ground track

The orbit data is extracted from the following two-line orbital elements,

1 35752U 09043A   15245.08607431  .00000017  00000-0  00000+0 0  9991
2 35752  54.2287 186.0345 0042509  20.3160 162.0314  2.00567913 44290
Epoch (UTC): 02 September 2015 02:03:56
Eccentricity: 0.0042509
inclination: 54.2287°
perigee height: 20069 km
apogee height: 20294 km
right ascension of ascending node: 186.0345°
argument of perigee: 20.3160°
revolutions per day: 2.00567913
mean anomaly at epoch: 162.0314°
orbit number at epoch: 4429

The dashed part of the orbit path shows where the satellite is in the earth's shadow,  

DLR